User: anonymous   Login
Location: NJAA Observatory
(40.6819°N, 74.8979°W)
Time: 07:25:51
(UTC-04:00)
Language:

Iridium 84 - Orbit

View from above orbital plane
View from above orbital plane
View from above satellite
View from above satellite

Ground track
Ground track

The orbit data is extracted from the following two-line orbital elements,

1 25530U 98066D   18172.63890063 -.00000042 +00000-0 -22193-4 0  9997
2 25530 086.3970 195.5018 0002273 085.7982 274.3474 14.34220873029884
Epoch (UTC): 21 June 2018 15:20:01
Eccentricity: 0.0002273
inclination: 86.3970°
perigee height: 776 km
apogee height: 779 km
right ascension of ascending node: 195.5018°
argument of perigee: 85.7982°
revolutions per day: 14.34220873
mean anomaly at epoch: 274.3474°
orbit number at epoch: 2988

The dashed part of the orbit path shows where the satellite is in the earth's shadow,  

DLR